[[{"header":{"parameterUnit":"m.s-1","parameterCategory":2,"la1":30.2991,"la2":30.254,"lo1":-89.0895,"lo2":-89.0444,"dy":0.0017,"dx":0.0017,"nx":28,"ny":28,"refTime":"2024-04-03T09:00:00:Z","depth":"0","parameterNumber":2,"parameterNumberName":"U-component_of_CURRENTS"},"data":[0,0,0,0,0,0,0,0,0,0,0,0,0,0,0,0,0,0,0,0,0,0,0,0,0,0,0,0,0,0,0,0,0,0,0,0,0,0,0,0,0,0,0,0,0,0,0,0,0,0,0,0,0,0,0,0,0,0,0.3306,0.3307,0,0.333,0.333,0.333,0.3312,0.3311,0.3311,0.331,0.3293,0.3293,0.3293,0,0,0,0,0,0,0,0,0,0,0,0,0,0.3248,0.3248,0.3306,0.3307,0.3307,0.333,0.333,0.333,0.3312,0.3311,0.3311,0.331,0.3293,0.3293,0.3293,0,0,0,0,0,0,0,0,0,0,0,0,0,0.327,0.3249,0.3306,0.3303,0.3303,0.333,0.333,0.333,0.3312,0.3311,0.331,0.331,0.3293,0.3293,0.3293,0.3311,0,0,0.3294,0.3294,0,0,0,0,0,0,0,0,0.3269,0.3272,0.3303,0.3303,0.3303,0.3319,0.3304,0.3323,0.3312,0.3306,0.331,0.3309,0.3301,0.33,0.3303,0.331,0.3309,0.3294,0.3294,0.3294,0.3294,0,0,0,0,0,0,0,0.3267,0.3271,0.3313,0.3303,0.3304,0.3301,0.3303,0.3307,0.3305,0.3306,0.3306,0.3313,0.33,0.3303,0.3303,0.3309,0.3294,0.3294,0.3294,0.3294,0.3359,0.3361,0,0,0,0,0,0,0.327,0.3269,0.3312,0.3314,0.3286,0.3303,0.3305,0.3313,0.3306,0.3305,0.3314,0.3312,0.3304,0.3303,0.3302,0.3345,0.3294,0.3294,0.3294,0.3358,0.336,0.3362,0,0,0,0,0,0,0.3269,0.3274,0.3311,0.3294,0.3299,0.3305,0.3314,0.3314,0.3323,0.3312,0.331,0.3323,0.3303,0.3302,0.3317,0.3343,0.3294,0.3294,0.3356,0.3358,0.3361,0.3416,0,0,0,0,0,0,0.3267,0.3273,0.328,0.3294,0.33,0.3333,0.3315,0.3315,0.3329,0.3327,0.332,0.3317,0.3302,0.3317,0.3317,0.3342,0.3294,0.3354,0.3357,0.336,0.3412,0.342,0.3426,0,0,0,0,0,0.3265,0.3275,0.328,0.3285,0.3309,0.3334,0.3337,0.3337,0.3331,0.334,0.3338,0.3317,0.3337,0.3319,0.3318,0.3344,0.3352,0.3356,0.336,0.3408,0.3418,0.3426,0,0,0,0,0,0,0.3248,0.3275,0.328,0.3296,0.3319,0.3332,0.334,0.3346,0.3353,0.335,0.3336,0.3334,0.3362,0.3348,0.3328,0.3374,0.3343,0.3347,0.338,0.3389,0.3396,0.341,0.3294,0,0,0,0,0,0.3251,0.3264,0.3292,0.3305,0.3318,0.3334,0.3344,0.3349,0.3359,0.3361,0.3358,0.3361,0.3378,0.3378,0.3388,0.3407,0.3415,0.3426,0.3433,0.3439,0.3452,0.3491,0.3503,0.3374,0.3374,0.3374,0,0,0.3245,0.3263,0.3269,0.3302,0.3317,0.3343,0.3337,0.3359,0.3383,0.3359,0.3383,0.3389,0.3392,0.342,0.343,0.3408,0.3482,0.3444,0.3449,0.3459,0.3496,0.3509,0.352,0.3376,0.3376,0.3376,0,0,0.3244,0.3262,0.3277,0.3302,0.3336,0.3351,0.3362,0.3387,0.3401,0.3429,0.3427,0.3451,0.3459,0.3475,0.3482,0.3538,0.3527,0.354,0.3579,0.3616,0.3627,0.3637,0.3667,0.3679,0.3535,0.3535,0.3535,0,0.3237,0.3262,0.3285,0.3313,0.3336,0.3358,0.3386,0.341,0.3436,0.3458,0.3441,0.3492,0.349,0.3542,0.3562,0.3555,0.3572,0.3541,0.3626,0.3635,0.3644,0.3673,0.3686,0.3538,0.3538,0.3537,0.3537,0,0.3251,0.3277,0.3291,0.3333,0.3363,0.339,0.3433,0.3464,0.348,0.3503,0.3559,0.3566,0.3595,0.3602,0.3597,0.3667,0.3658,0.3636,0.3601,0.3661,0.3687,0.3699,0.3542,0.3541,0.354,0.354,0,0,0.3219,0.3286,0.3292,0.3313,0.3379,0.3397,0.3459,0.3516,0.3556,0.3585,0.3639,0.3675,0.3684,0.3696,0.3699,0.373,0.3805,0.3712,0.3713,0.3739,0.3892,0.3875,0.3886,0.3799,0.3801,0.3803,0.3887,0,0.3223,0.3268,0.331,0.3353,0.338,0.3436,0.3489,0.3547,0.3595,0.3652,0.3689,0.3737,0.3719,0.374,0.3773,0.3808,0.384,0.3785,0.3834,0.3836,0.381,0.3901,0.3832,0.3901,0.3898,0.39,0.3902,0,0.3224,0.3256,0.3298,0.3365,0.3384,0.3415,0.3504,0.3559,0.366,0.37,0.3765,0.3799,0.3874,0.3836,0.3925,0.3893,0.3902,0.3914,0.3917,0.3892,0.3842,0.3841,0.3922,0.3872,0.392,0.3918,0.3917,0,0.3176,0.3245,0.3272,0.3296,0.3379,0.3413,0.3464,0.3567,0.3638,0.3742,0.3805,0.3878,0.3937,0.3967,0.4008,0.3974,0.4096,0.4044,0.4036,0.4034,0.3981,0.3971,0.4017,0.41,0.41,0.41,0.41,0,0.316,0.3179,0.3247,0.3258,0.3305,0.3378,0.3452,0.3521,0.3647,0.3729,0.3823,0.3907,0.3977,0.4055,0.4053,0.4103,0.4134,0.4074,0.4068,0.3999,0.3989,0.3945,0.3908,0.4103,0.4102,0.4102,0.4101,0,0.3103,0.3147,0.3178,0.3254,0.3281,0.3314,0.3446,0.3497,0.3633,0.3752,0.3797,0.3965,0.4071,0.4132,0.4201,0.4176,0.4116,0.4202,0.4118,0.4101,0.4021,0.3989,0.3856,0.3734,0.4208,0.4208,0.4208,0,0.3077,0.3085,0.3156,0.3172,0.3205,0.3275,0.3321,0.3466,0.3542,0.3776,0.3823,0.4001,0.4102,0.4231,0.4237,0.4262,0.413,0.4188,0.4104,0.404,0.4001,0.3813,0.3704,0.4058,0.4057,0.4056,0.4055,0,0.3025,0.3047,0.3072,0.3109,0.3143,0.3198,0.3285,0.3357,0.353,0.366,0.3826,0.3942,0.4117,0.4152,0.4222,0.4213,0.4032,0.417,0.413,0.3924,0.3697,0.3568,0.3974,0.4048,0.4048,0.4049,0.4049,0.405,0.2977,0.2979,0.3006,0.3033,0.3065,0.3096,0.3108,0.323,0.3354,0.3516,0.3715,0.3849,0.4043,0.4153,0.4113,0.407,0.3974,0.3989,0.397,0.3794,0.3632,0.4025,0.407,0.4071,0.4072,0.4072,0.4073,0,0.2904,0.291,0.2927,0.2937,0.2918,0.2978,0.3049,0.305,0.3134,0.3348,0.3494,0.3742,0.3837,0.3937,0.4026,0.3929,0.3691,0.3827,0.3568,0.3477,0.3885,0.3838,0.3802,0.3802,0.3802,0.3802,0.3802,0.3802,0.2863,0.2836,0.284,0.2778,0.278,0.272,0.2728,0.2767,0.2885,0.3047,0.3198,0.3383,0.3757,0.3993,0.3976,0.3855,0.356,0.3415,0.3335,0.3691,0.3704,0.3716,0.3665,0.3593,0.3593,0.2801,0.2796,0.2792]},{"header":{"parameterUnit":"m.s-1","parameterCategory":2,"la1":30.2991,"la2":30.254,"lo1":-89.0895,"lo2":-89.0444,"dy":0.0017,"dx":0.0017,"nx":28,"ny":28,"refTime":"2024-04-03T09:00:00:Z","depth":"0","parameterNumber":3,"parameterNumberName":"V-component_of_CURRENTS"},"data":[0,0,0,0,0,0,0,0,0,0,0,0,0,0,0,0,0,0,0,0,0,0,0,0,0,0,0,0,0,0,0,0,0,0,0,0,0,0,0,0,0,0,0,0,0,0,0,0,0,0,0,0,0,0,0,0,0,0,0.0171,0.0171,0,0.0114,0.0113,0.0112,0.0067,0.0067,0.0067,0.0067,-0.0015,-0.0017,-0.0019,0,0,0,0,0,0,0,0,0,0,0,0,0,0.0172,0.0173,0.0171,0.0171,0.017,0.0114,0.0113,0.0112,0.0067,0.0067,0.0067,0.0067,-0.0014,-0.0017,-0.0019,0,0,0,0,0,0,0,0,0,0,0,0,0,0.0147,0.0173,0.0171,0.0143,0.014,0.0114,0.0113,0.0112,0.0067,0.0067,0.0067,0.0066,-0.0014,-0.0017,-0.0019,-0.0031,0,0,-0.0029,-0.003,0,0,0,0,0,0,0,0,0.0148,0.0147,0.0148,0.0145,0.0142,0.0099,0.0083,0.0063,0.0067,0.0092,0.0067,0.0066,0.0023,0.0017,0.0004,-0.0035,-0.0039,-0.0029,-0.0031,-0.0032,-0.0033,0,0,0,0,0,0,0,0.015,0.0148,0.0146,0.0147,0.0143,0.0109,0.0106,0.0079,0.0058,0.009,0.0087,0.0085,0.0021,0.0007,0.0001,-0.004,-0.0029,-0.0031,-0.0033,-0.0034,-0.0093,-0.0092,0,0,0,0,0,0,0.0166,0.0151,0.0148,0.0145,0.0147,0.011,0.0106,0.0111,0.0058,0.0051,0.0085,0.0083,0.0012,0.0005,-0.0002,-0.0002,-0.0032,-0.0035,-0.0036,-0.0093,-0.0093,-0.0092,0,0,0,0,0,0,0.0167,0.0167,0.015,0.0147,0.0143,0.0111,0.0117,0.011,0.0101,0.0055,0.0047,0.0084,0.0011,0.0003,-0.0017,-0.0006,-0.0036,-0.0039,-0.0093,-0.0093,-0.0092,-0.0013,0,0,0,0,0,0,0.0167,0.0168,0.0175,0.0149,0.0144,0.0147,0.0117,0.011,0.0101,0.0098,0.0052,0.0043,0.001,-0.0012,-0.0019,-0.001,-0.0041,-0.0093,-0.0093,-0.0093,-0.0016,-0.001,-0.0005,0,0,0,0,0,0.0168,0.0186,0.0176,0.0175,0.0156,0.0148,0.0142,0.0116,0.0102,0.0105,0.0073,0.0045,-0.0015,-0.0014,-0.0023,-0.0014,-0.0094,-0.0093,-0.0093,-0.0018,-0.0011,-0.0005,0,0,0,0,0,0,0.0191,0.0183,0.0171,0.0186,0.0172,0.0142,0.0142,0.0124,0.01,0.0097,0.0051,0.0041,0.0026,-0.0005,-0.0003,-0.0032,-0.006,-0.0061,-0.0,0.0006,0.0011,0.0034,-0.0043,0,0,0,0,0,0.0201,0.0212,0.0194,0.0206,0.0202,0.0172,0.0165,0.015,0.0127,0.0116,0.0083,0.0047,0.002,0.0006,-0.0025,-0.0037,-0.0074,-0.004,-0.0034,-0.0029,-0.0018,-0.0068,-0.0066,-0.0091,-0.0091,-0.0091,0,0,0.0212,0.021,0.0215,0.0211,0.0196,0.0203,0.0167,0.0165,0.0173,0.0111,0.0108,0.0067,0.0021,0.0007,-0.0003,-0.0017,-0.0042,-0.0028,-0.0023,-0.0015,-0.0067,-0.0065,-0.0062,-0.009,-0.009,-0.009,0,0,0.0248,0.024,0.0262,0.0259,0.0249,0.0229,0.0234,0.021,0.0201,0.0191,0.0149,0.0116,0.0075,0.0044,0.0023,0.004,-0.0011,0.0028,0.0076,0.0027,0.0029,0.003,-0.0012,-0.0015,0.0031,0.0032,0.0032,0,0.026,0.0291,0.0266,0.0289,0.0293,0.0248,0.0273,0.0258,0.0231,0.023,0.0202,0.0136,0.0093,0.0077,0.008,0.0054,0.002,0.0058,0.0036,0.0036,0.0036,-0.0008,-0.0012,0.0036,0.0035,0.0035,0.0034,0,0.0317,0.0338,0.0351,0.0364,0.0361,0.0376,0.0355,0.0357,0.0331,0.0305,0.0282,0.0217,0.0179,0.0155,0.0123,0.0105,0.008,0.005,0.0024,0.0044,-0.0004,-0.001,0.0041,0.004,0.0039,0.0038,0,0,0.0353,0.0386,0.039,0.0416,0.0406,0.0415,0.0432,0.0431,0.045,0.0396,0.0406,0.0335,0.0288,0.0261,0.0208,0.0162,0.0124,0.0114,0.0109,0.0081,0.0022,0.0001,-0.0008,0.0091,0.009,0.009,-0.001,0,0.0404,0.0473,0.0465,0.0518,0.055,0.0525,0.0548,0.0539,0.0512,0.0508,0.0431,0.0407,0.0332,0.0315,0.0257,0.0162,0.0112,0.0155,-0.0001,-0.0005,-0.0019,-0.0015,0.0017,-0.0069,-0.0016,-0.0017,-0.0018,0,0.0464,0.0504,0.0571,0.0618,0.0628,0.0646,0.0675,0.0694,0.0669,0.0649,0.0598,0.0528,0.0458,0.0389,0.0232,0.0264,0.0155,0.007,0.0063,0.0014,-0.0037,-0.0083,-0.0083,-0.0317,-0.0028,-0.0027,-0.0027,0,0.0516,0.0578,0.0637,0.0652,0.0691,0.072,0.0739,0.0735,0.0772,0.0735,0.0744,0.0628,0.059,0.0436,0.0254,0.0242,0.0078,0.0035,-0.0089,-0.0092,-0.011,-0.0113,-0.0345,-0.0078,-0.0077,-0.0077,-0.0077,0,0.0578,0.0626,0.0672,0.0706,0.0792,0.0788,0.0866,0.0871,0.0887,0.0941,0.0821,0.0832,0.0599,0.0475,0.0293,0.0091,0.0101,-0.0075,-0.0117,-0.0081,-0.0081,-0.0322,-0.0449,-0.0081,-0.008,-0.0079,-0.0079,0,0.0626,0.0653,0.0734,0.0793,0.0822,0.0886,0.0972,0.1027,0.1026,0.1096,0.1092,0.0983,0.082,0.0579,0.0328,0.0157,-0.0178,-0.0124,-0.0062,-0.0095,-0.0428,-0.055,-0.0819,-0.0925,-0.0276,-0.0277,-0.0278,0,0.0658,0.0706,0.0806,0.0867,0.0896,0.0992,0.1066,0.1101,0.117,0.1202,0.1247,0.1108,0.1049,0.0667,0.0319,-0.0008,-0.0225,-0.0196,-0.022,-0.0442,-0.061,-0.0703,-0.0779,-0.0217,-0.0218,-0.0218,-0.0218,0,0.0721,0.0754,0.0821,0.0955,0.1042,0.116,0.1266,0.1352,0.1409,0.1468,0.152,0.1474,0.1107,0.078,0.0314,0.0086,-0.0359,-0.0212,-0.0463,-0.06,-0.0695,-0.0816,-0.016,-0.0221,-0.0221,-0.022,-0.022,-0.022,0.0766,0.083,0.0924,0.1053,0.1166,0.1319,0.1441,0.1556,0.1701,0.1833,0.175,0.1747,0.1252,0.0621,0.0247,-0.0396,-0.0418,-0.0578,-0.0711,-0.0787,-0.0886,-0.0231,-0.0327,-0.0328,-0.0328,-0.0328,-0.0328,0,0.0826,0.0901,0.1018,0.1174,0.1312,0.1365,0.157,0.1706,0.1902,0.2026,0.2079,0.1855,0.123,0.0596,-0.0283,-0.0786,-0.0959,-0.1067,-0.1203,-0.1259,-0.0692,-0.0685,-0.0837,-0.0837,-0.0836,-0.0836,-0.0836,-0.0836,0.0857,0.0975,0.104,0.1273,0.139,0.1605,0.1742,0.1943,0.2096,0.2284,0.2316,0.2295,0.1818,0.0126,-0.1027,-0.1294,-0.1644,-0.1732,-0.1932,-0.1558,-0.1523,-0.1489,-0.1515,-0.1838,-0.1839,-0.2416,-0.2422,-0.2427]}],[{"header":{"parameterUnit":"m.s-1","parameterCategory":2,"la1":30.2991,"la2":30.254,"lo1":-89.0895,"lo2":-89.0444,"dy":0.0017,"dx":0.0017,"nx":28,"ny":28,"refTime":"2024-04-03T09:00:00:Z","depth":"2","parameterNumber":2,"parameterNumberName":"U-component_of_CURRENTS"},"data":[0,0,0,0,0,0,0,0,0,0,0,0,0,0,0,0,0,0,0,0,0,0,0,0,0,0,0,0,0,0,0,0,0,0,0,0,0,0,0,0,0,0,0,0,0,0,0,0,0,0,0,0,0,0,0,0,0,0,0.3107,0.3107,0,0.313,0.313,0.313,0.3118,0.3118,0.3117,0.3117,0.3108,0.3108,0.3108,0,0,0,0,0,0,0,0,0,0,0,0,0,0.3053,0.3054,0.3107,0.3107,0.3108,0.3129,0.313,0.313,0.3118,0.3118,0.3117,0.3117,0.3108,0.3108,0.3108,0,0,0,0,0,0,0,0,0,0,0,0,0,0.3074,0.3054,0.3107,0.3107,0.3107,0.3129,0.313,0.313,0.3118,0.3118,0.3117,0.3117,0.3108,0.3108,0.3108,0.3121,0,0,0.3109,0.3109,0,0,0,0,0,0,0,0,0.3072,0.3075,0.3106,0.3107,0.3107,0.3123,0.3107,0.3126,0.3118,0.3111,0.3117,0.3116,0.3112,0.3112,0.3114,0.312,0.312,0.3109,0.3109,0.3109,0.3109,0,0,0,0,0,0,0,0.3071,0.3074,0.3113,0.3107,0.3108,0.3105,0.3107,0.3111,0.3112,0.3112,0.3112,0.3118,0.3112,0.3114,0.3114,0.312,0.3109,0.3109,0.3109,0.3109,0.3176,0.3178,0,0,0,0,0,0,0.3074,0.3073,0.3113,0.3114,0.3091,0.3107,0.3109,0.3116,0.3113,0.3113,0.3119,0.3118,0.3114,0.3114,0.3114,0.3161,0.3109,0.3109,0.3109,0.3175,0.3177,0.3178,0,0,0,0,0,0,0.3073,0.3077,0.3112,0.3096,0.31,0.3109,0.3117,0.3117,0.313,0.3119,0.3117,0.3133,0.3114,0.3113,0.3132,0.3159,0.3109,0.311,0.3173,0.3175,0.3178,0.3235,0,0,0,0,0,0,0.3071,0.3077,0.3085,0.3096,0.3102,0.3133,0.3117,0.3118,0.3135,0.3134,0.313,0.3128,0.3113,0.3132,0.3132,0.3159,0.311,0.317,0.3174,0.3177,0.3231,0.3239,0.3246,0,0,0,0,0,0.3069,0.3079,0.3085,0.309,0.3112,0.3135,0.3137,0.3139,0.3137,0.3147,0.3148,0.3129,0.3152,0.3133,0.3133,0.316,0.3169,0.3173,0.3176,0.3227,0.3237,0.3246,0,0,0,0,0,0,0.3056,0.308,0.3086,0.3102,0.3123,0.3134,0.3144,0.315,0.316,0.3161,0.3147,0.3146,0.3177,0.3163,0.3143,0.3191,0.3159,0.3163,0.3198,0.3207,0.3214,0.3228,0.311,0,0,0,0,0,0.306,0.3074,0.3098,0.3111,0.3125,0.3139,0.315,0.3157,0.3167,0.3171,0.317,0.3175,0.3192,0.3194,0.3203,0.3224,0.3231,0.3244,0.3252,0.3258,0.3271,0.3308,0.332,0.3191,0.3191,0.3191,0,0,0.3057,0.3073,0.308,0.311,0.3125,0.3149,0.3144,0.3168,0.3192,0.3169,0.3197,0.3204,0.3206,0.3235,0.3247,0.3224,0.33,0.3263,0.3268,0.3278,0.3313,0.3325,0.3337,0.3193,0.3193,0.3193,0,0,0.306,0.3077,0.3092,0.3116,0.3149,0.3161,0.3174,0.3199,0.3214,0.3244,0.3243,0.3268,0.3278,0.3292,0.3299,0.3356,0.3345,0.336,0.3401,0.3436,0.3447,0.3456,0.3486,0.3498,0.3355,0.3356,0.3356,0,0.3056,0.3079,0.31,0.3127,0.3149,0.3171,0.3198,0.3222,0.3249,0.3272,0.3258,0.3311,0.3309,0.3359,0.338,0.3373,0.3391,0.3362,0.3446,0.3455,0.3464,0.3492,0.3504,0.3359,0.3358,0.3358,0.3358,0,0.3071,0.3097,0.311,0.3151,0.3179,0.3206,0.3247,0.3278,0.3298,0.332,0.3378,0.3384,0.3414,0.3423,0.3418,0.3487,0.3479,0.3456,0.342,0.3481,0.3506,0.3518,0.3363,0.3362,0.3361,0.336,0,0,0.3046,0.3107,0.3114,0.3134,0.3197,0.3214,0.3275,0.333,0.337,0.3401,0.3455,0.3493,0.3504,0.3516,0.3519,0.3549,0.3626,0.3534,0.3534,0.356,0.3711,0.3687,0.3697,0.3619,0.3621,0.3623,0.3705,0,0.3053,0.3094,0.3133,0.3175,0.3201,0.3254,0.3305,0.3362,0.3411,0.3467,0.3504,0.3554,0.3538,0.3563,0.3594,0.3628,0.3659,0.3606,0.3652,0.3653,0.3622,0.3711,0.3413,0.3459,0.3716,0.3718,0.3719,0,0.3055,0.3084,0.3126,0.3189,0.3206,0.3238,0.3325,0.3378,0.3476,0.3518,0.3583,0.3617,0.3692,0.3656,0.3743,0.3713,0.3723,0.3734,0.3736,0.3704,0.3652,0.3441,0.3471,0.3739,0.3737,0.3736,0.3734,0,0.3012,0.3077,0.3104,0.3127,0.3204,0.3239,0.3289,0.339,0.3458,0.3563,0.3625,0.3698,0.3757,0.3787,0.3827,0.3795,0.3911,0.3859,0.3845,0.3842,0.3593,0.3565,0.3914,0.3914,0.3914,0.3914,0.3914,0,0.2998,0.3018,0.3083,0.3094,0.3141,0.3211,0.3285,0.3353,0.3476,0.3555,0.3648,0.3728,0.3798,0.3872,0.387,0.3915,0.3948,0.3882,0.3875,0.3606,0.358,0.3817,0.3805,0.3917,0.3916,0.3916,0.3915,0,0.2948,0.2989,0.302,0.3093,0.312,0.3155,0.3283,0.3333,0.3467,0.3582,0.3627,0.3787,0.3888,0.3946,0.4013,0.3984,0.4009,0.4004,0.3693,0.3649,0.3901,0.389,0.4001,0.4002,0.4002,0.4002,0.4002,0,0.2924,0.2933,0.3003,0.3019,0.3052,0.3123,0.3167,0.3308,0.338,0.3604,0.3648,0.382,0.3908,0.4027,0.3999,0.4012,0.4047,0.374,0.3626,0.3935,0.3916,0.3906,0.3896,0.3309,0.3304,0.3299,0.3296,0,0.2876,0.29,0.2923,0.2962,0.2996,0.3048,0.3133,0.32,0.3366,0.3488,0.3642,0.3745,0.388,0.3781,0.383,0.3785,0.3716,0.3651,0.4053,0.3352,0.3294,0.3272,0.3282,0.3255,0.3259,0.3262,0.3264,0.3266,0.2834,0.2836,0.2862,0.289,0.2922,0.2949,0.2959,0.3067,0.318,0.3301,0.3495,0.3527,0.358,0.3512,0.3415,0.333,0.3581,0.3396,0.3404,0.3418,0.3342,0.329,0.3235,0.3239,0.3242,0.3245,0.3247,0,0.2761,0.277,0.2787,0.2797,0.2772,0.2838,0.29,0.2874,0.2938,0.3076,0.3182,0.2979,0.2961,0.2984,0.2809,0.284,0.2749,0.2712,0.2545,0.2592,0.2632,0.2508,0.2183,0.2179,0.2175,0.2171,0,0,0.2721,0.2692,0.2695,0.2631,0.2638,0.2568,0.2572,0.2561,0.261,0.2601,0.2595,0.2825,0.2931,0.2511,0.2482,0.229,0.2406,0.2204,0.3073,0.2925,0.2959,0.3063,0.2932,0,0,0,0,0]},{"header":{"parameterUnit":"m.s-1","parameterCategory":2,"la1":30.2991,"la2":30.254,"lo1":-89.0895,"lo2":-89.0444,"dy":0.0017,"dx":0.0017,"nx":28,"ny":28,"refTime":"2024-04-03T09:00:00:Z","depth":"2","parameterNumber":3,"parameterNumberName":"V-component_of_CURRENTS"},"data":[0,0,0,0,0,0,0,0,0,0,0,0,0,0,0,0,0,0,0,0,0,0,0,0,0,0,0,0,0,0,0,0,0,0,0,0,0,0,0,0,0,0,0,0,0,0,0,0,0,0,0,0,0,0,0,0,0,0,0.0229,0.0228,0,0.0174,0.0173,0.0173,0.013,0.0129,0.0129,0.0129,0.005,0.0048,0.0047,0,0,0,0,0,0,0,0,0,0,0,0,0,0.0229,0.023,0.0229,0.0228,0.0228,0.0174,0.0173,0.0172,0.013,0.0129,0.0129,0.0129,0.0051,0.0049,0.0046,0,0,0,0,0,0,0,0,0,0,0,0,0,0.0206,0.023,0.0229,0.0202,0.0199,0.0175,0.0173,0.0172,0.013,0.0129,0.0129,0.0129,0.0052,0.0049,0.0046,0.0035,0,0,0.0037,0.0036,0,0,0,0,0,0,0,0,0.0207,0.0205,0.0206,0.0204,0.02,0.016,0.0145,0.0126,0.013,0.0154,0.0129,0.0128,0.0087,0.0081,0.0068,0.0032,0.0028,0.0037,0.0036,0.0034,0.0033,0,0,0,0,0,0,0,0.0209,0.0207,0.0205,0.0206,0.0202,0.0169,0.0166,0.0141,0.012,0.0151,0.0149,0.0146,0.0084,0.0071,0.0066,0.0027,0.0037,0.0035,0.0033,0.0032,-0.0025,-0.0025,0,0,0,0,0,0,0.0224,0.0209,0.0207,0.0204,0.0205,0.017,0.0166,0.0172,0.0121,0.0114,0.0147,0.0145,0.0076,0.007,0.0063,0.0062,0.0034,0.0032,0.003,-0.0025,-0.0025,-0.0025,0,0,0,0,0,0,0.0224,0.0225,0.0209,0.0206,0.0202,0.0171,0.0177,0.0171,0.0162,0.0118,0.011,0.0145,0.0076,0.0067,0.0049,0.0058,0.003,0.0028,-0.0026,-0.0025,-0.0025,0.005,0,0,0,0,0,0,0.0225,0.0225,0.0232,0.0208,0.0203,0.0206,0.0178,0.017,0.0162,0.0158,0.0114,0.0106,0.0075,0.0053,0.0046,0.0054,0.0026,-0.0026,-0.0025,-0.0025,0.0048,0.0053,0.0058,0,0,0,0,0,0.0225,0.0243,0.0233,0.0233,0.0215,0.0207,0.0201,0.0176,0.0162,0.0164,0.0134,0.0108,0.005,0.0052,0.0043,0.005,-0.0026,-0.0026,-0.0025,0.0045,0.0052,0.0058,0,0,0,0,0,0,0.0247,0.024,0.0228,0.0243,0.0229,0.02,0.02,0.0183,0.016,0.0157,0.0113,0.0103,0.0089,0.0058,0.0061,0.0033,0.0006,0.0005,0.0063,0.0069,0.0074,0.0096,0.0023,0,0,0,0,0,0.0256,0.0267,0.025,0.0261,0.0257,0.0229,0.0222,0.0207,0.0185,0.0174,0.0143,0.0109,0.0082,0.0069,0.0039,0.0028,-0.0009,0.0024,0.0029,0.0034,0.0046,-0.0004,-0.0002,-0.0024,-0.0024,-0.0024,0,0,0.0267,0.0265,0.027,0.0266,0.0252,0.0259,0.0224,0.0222,0.023,0.017,0.0167,0.0127,0.0083,0.0069,0.0059,0.0046,0.002,0.0035,0.0039,0.0048,-0.0004,-0.0001,0.0,-0.0023,-0.0023,-0.0024,0,0,0.0301,0.0293,0.0315,0.0311,0.0302,0.0283,0.0288,0.0264,0.0256,0.0245,0.0205,0.0173,0.0133,0.0104,0.0084,0.0099,0.005,0.0087,0.0133,0.0084,0.0086,0.0087,0.0045,0.0041,0.009,0.009,0.009,0,0.0313,0.0342,0.0319,0.0341,0.0344,0.0301,0.0325,0.0311,0.0284,0.0283,0.0255,0.0192,0.015,0.0135,0.0137,0.0112,0.0079,0.0116,0.0092,0.0092,0.0092,0.0048,0.0043,0.0094,0.0093,0.0093,0.0093,0,0.0367,0.0388,0.0401,0.0413,0.041,0.0425,0.0404,0.0405,0.038,0.0354,0.0332,0.0268,0.0232,0.0208,0.0177,0.0159,0.0135,0.0106,0.0081,0.0099,0.0051,0.0045,0.0099,0.0098,0.0097,0.0096,0,0,0.0402,0.0434,0.0438,0.0464,0.0454,0.0463,0.0478,0.0478,0.0495,0.0442,0.0451,0.0382,0.0336,0.031,0.0258,0.0213,0.0174,0.0166,0.0162,0.0133,0.0072,0.0051,0.0041,0.0141,0.0141,0.014,0.004,0,0.0451,0.0518,0.0511,0.0563,0.0594,0.0569,0.0591,0.0582,0.0555,0.0551,0.0475,0.0452,0.0378,0.0362,0.0304,0.0212,0.0161,0.0204,0.0052,0.0047,0.0033,0.0035,0.0067,-0.0019,0.0034,0.0033,0.0032,0,0.0509,0.0548,0.0614,0.066,0.067,0.0687,0.0715,0.0733,0.0708,0.0687,0.0637,0.0568,0.0499,0.0432,0.0277,0.0309,0.0202,0.0118,0.0112,0.0064,0.0015,-0.0031,-0.0033,0.0021,0.0022,0.0023,0.0023,0,0.0559,0.062,0.0678,0.0693,0.0731,0.0759,0.0778,0.0772,0.0809,0.0772,0.0778,0.0665,0.0626,0.0475,0.0297,0.0286,0.0123,0.0082,-0.004,-0.0043,-0.0059,-0.0062,-0.0029,-0.0029,-0.0029,-0.0029,-0.0029,0,0.0619,0.0667,0.0712,0.0745,0.0829,0.0825,0.0901,0.0906,0.092,0.0971,0.0854,0.0861,0.0635,0.0512,0.0334,0.0134,0.0144,-0.0028,-0.0069,-0.0032,-0.0032,-0.0032,-0.003,-0.0033,-0.0032,-0.0031,-0.003,0,0.0666,0.0692,0.0772,0.083,0.0858,0.0921,0.1005,0.1058,0.1056,0.1122,0.1117,0.1007,0.0845,0.0609,0.0363,0.0197,-0.0003,-0.0079,-0.0017,-0.0049,-0.0148,-0.0142,-0.0226,-0.0228,-0.0229,-0.023,-0.0231,0,0.0697,0.0745,0.0843,0.0902,0.0931,0.1025,0.1096,0.113,0.1197,0.1223,0.1265,0.1125,0.106,0.0685,0.0348,0.0028,-0.0014,-0.0151,-0.0173,-0.0136,-0.0168,-0.0159,-0.0152,-0.0169,-0.017,-0.017,-0.017,0,0.0759,0.0791,0.0857,0.0988,0.1073,0.1188,0.1292,0.1373,0.1427,0.1478,0.1521,0.1469,0.1109,0.0783,0.033,0.0114,-0.0101,-0.0168,-0.0149,-0.0118,-0.0089,-0.0118,-0.0111,-0.0173,-0.0173,-0.0172,-0.0172,-0.0172,0.0803,0.0865,0.0958,0.1083,0.1194,0.1342,0.146,0.1565,0.1699,0.1796,0.1722,0.1645,0.1266,0.0684,0.029,-0.0135,-0.011,-0.0248,-0.0245,-0.0241,-0.021,-0.0184,-0.0281,-0.0281,-0.0281,-0.0282,-0.0282,0,0.0861,0.0934,0.1049,0.1201,0.1334,0.1388,0.1585,0.17,0.1875,0.1929,0.1956,0.1587,0.1203,0.075,0.0127,-0.0226,-0.0254,-0.0346,-0.0297,-0.029,-0.0286,-0.0256,-0.034,-0.0341,-0.0343,-0.0344,0,0,0.0891,0.1006,0.1069,0.1295,0.141,0.1614,0.1745,0.1904,0.1996,0.2067,0.2007,0.1889,0.1337,0.088,0.0384,0.0019,-0.005,-0.0054,0.0036,0.0162,0.017,-0.0185,-0.0126,0,0,0,0,0]}],[{"header":{"parameterUnit":"m.s-1","parameterCategory":2,"la1":30.2991,"la2":30.254,"lo1":-89.0895,"lo2":-89.0444,"dy":0.0017,"dx":0.0017,"nx":28,"ny":28,"refTime":"2024-04-03T09:00:00:Z","depth":"4","parameterNumber":2,"parameterNumberName":"U-component_of_CURRENTS"},"data":[0,0,0,0,0,0,0,0,0,0,0,0,0,0,0,0,0,0,0,0,0,0,0,0,0,0,0,0,0,0,0,0,0,0,0,0,0,0,0,0,0,0,0,0,0,0,0,0,0,0,0,0,0,0,0,0,0,0,0.1999,0.1999,0,0.2064,0.2064,0.2065,0.2122,0.2123,0.2124,0.2125,0.2203,0.2204,0.2205,0,0,0,0,0,0,0,0,0,0,0,0,0,0.1915,0.1916,0.1998,0.1999,0.2,0.2064,0.2064,0.2065,0.2122,0.2123,0.2124,0.2125,0.2202,0.2204,0.2205,0,0,0,0,0,0,0,0,0,0,0,0,0,0.1961,0.1916,0.1998,0.2038,0.2042,0.2063,0.2064,0.2065,0.2122,0.2123,0.2125,0.2126,0.2202,0.2204,0.2206,0.2192,0,0,0.2211,0.2212,0,0,0,0,0,0,0,0,0.1958,0.1963,0.2031,0.2035,0.204,0.2088,0.2063,0.2109,0.2122,0.209,0.2125,0.2126,0.2166,0.2171,0.2177,0.2196,0.2199,0.2212,0.2213,0.2214,0.2214,0,0,0,0,0,0,0,0.1955,0.1961,0.2022,0.2032,0.2038,0.205,0.2057,0.2072,0.2119,0.2093,0.2097,0.2107,0.2168,0.2175,0.218,0.22,0.2212,0.2213,0.2214,0.2215,0.2341,0.2343,0,0,0,0,0,0,0.195,0.1958,0.202,0.2024,0.2004,0.205,0.2059,0.207,0.2118,0.2127,0.2106,0.211,0.2171,0.2177,0.2183,0.2286,0.2214,0.2215,0.2216,0.2339,0.2342,0.2344,0,0,0,0,0,0,0.1948,0.1955,0.2018,0.1994,0.2003,0.2051,0.2062,0.207,0.2124,0.2129,0.2138,0.2157,0.2173,0.218,0.2238,0.2285,0.2216,0.2218,0.2337,0.234,0.2343,0.2419,0,0,0,0,0,0,0.1945,0.1953,0.1981,0.1994,0.2005,0.2058,0.2061,0.2071,0.2126,0.2132,0.2174,0.218,0.2174,0.2236,0.224,0.2287,0.2219,0.2334,0.2338,0.2342,0.2413,0.2424,0.2433,0,0,0,0,0,0.1942,0.1964,0.1982,0.1991,0.2034,0.2059,0.2067,0.2102,0.2128,0.2155,0.219,0.2181,0.2265,0.2239,0.2244,0.2292,0.2332,0.2337,0.2342,0.2409,0.2422,0.2433,0,0,0,0,0,0,0.1944,0.1973,0.1992,0.2025,0.2056,0.2071,0.2106,0.2129,0.2177,0.22,0.2205,0.2213,0.2285,0.2278,0.2249,0.2342,0.2299,0.2305,0.2348,0.2361,0.237,0.2379,0.2221,0,0,0,0,0,0.1956,0.1985,0.2009,0.2042,0.2062,0.2094,0.212,0.2145,0.2178,0.2203,0.2232,0.2267,0.23,0.2324,0.2348,0.2394,0.2394,0.2431,0.2441,0.2449,0.2461,0.2497,0.2511,0.236,0.236,0.236,0,0,0.1966,0.1988,0.2007,0.2046,0.2076,0.2108,0.2114,0.2165,0.2206,0.2202,0.2283,0.2308,0.2322,0.2379,0.241,0.2385,0.2494,0.2455,0.2462,0.247,0.2503,0.2518,0.2531,0.2364,0.2363,0.2363,0,0,0.1985,0.2024,0.2051,0.2081,0.2134,0.215,0.2176,0.222,0.2263,0.2326,0.2342,0.2397,0.2445,0.2465,0.2478,0.2558,0.2548,0.2576,0.2631,0.2666,0.2678,0.2689,0.2712,0.2725,0.2577,0.2577,0.2577,0,0.2003,0.2035,0.2065,0.2098,0.2133,0.2175,0.2214,0.2254,0.2317,0.2357,0.2367,0.2466,0.2482,0.2547,0.2582,0.258,0.2598,0.2581,0.2678,0.2689,0.2699,0.272,0.2732,0.2581,0.2581,0.258,0.258,0,0.2025,0.2072,0.2094,0.2149,0.2189,0.2233,0.2285,0.2344,0.24,0.2436,0.2534,0.2562,0.262,0.2637,0.2638,0.2723,0.2714,0.2688,0.2644,0.2718,0.2736,0.2748,0.2587,0.2586,0.2584,0.2583,0,0,0.2009,0.2093,0.2108,0.2143,0.2225,0.225,0.2336,0.241,0.2473,0.2545,0.2624,0.2694,0.2727,0.2745,0.276,0.2795,0.2882,0.2785,0.2785,0.2802,0.2967,0.2786,0.2781,0.2881,0.2883,0.2885,0.2953,0,0.2024,0.2085,0.2132,0.2205,0.224,0.2314,0.2382,0.2462,0.2539,0.2624,0.2681,0.2763,0.2762,0.281,0.2848,0.2882,0.2917,0.2866,0.2898,0.2899,0.2723,0.2789,0.2893,0.2961,0.2964,0.2966,0.2967,0,0.2023,0.2068,0.214,0.2232,0.2258,0.2317,0.2437,0.2508,0.2632,0.2697,0.2792,0.284,0.2935,0.2909,0.3004,0.2979,0.2991,0.2997,0.2999,0.281,0.2739,0.2871,0.2988,0.2986,0.2984,0.2983,0.2982,0,0.1971,0.2069,0.2129,0.2162,0.2273,0.2339,0.2414,0.2541,0.2621,0.2764,0.2836,0.2935,0.3012,0.3047,0.3085,0.3063,0.3162,0.3119,0.2961,0.2948,0.3057,0.3045,0.3174,0.3174,0.3174,0.3173,0.3173,0,0.1941,0.1993,0.2118,0.2146,0.2232,0.2327,0.2442,0.2531,0.2677,0.276,0.2883,0.2952,0.3057,0.3121,0.3123,0.3082,0.3196,0.2983,0.2956,0.3088,0.3078,0.3065,0.3052,0.3176,0.3175,0.3175,0.3174,0,0.1869,0.1951,0.2024,0.2158,0.2209,0.2278,0.2455,0.252,0.2683,0.2799,0.2855,0.3011,0.3085,0.3152,0.3213,0.3118,0.3097,0.3051,0.3207,0.3185,0.2851,0.2841,0.2871,0.2865,0.286,0.2856,0.2852,0,0.1829,0.1862,0.2018,0.2066,0.2138,0.2261,0.2331,0.2507,0.2578,0.2798,0.2825,0.2979,0.305,0.2994,0.3078,0.3063,0.3022,0.2989,0.2899,0.285,0.2822,0.282,0.2817,0.2845,0.2843,0.2842,0.2841,0,0.1753,0.1831,0.1891,0.1993,0.2079,0.2161,0.2283,0.2325,0.2509,0.268,0.2727,0.2763,0.2841,0.2872,0.2893,0.2872,0.2994,0.2937,0.2945,0.2861,0.2819,0.2795,0.2798,0.2824,0.2826,0.2828,0.2829,0,0.1703,0.1726,0.1817,0.1889,0.1987,0.2019,0.2108,0.2178,0.2273,0.2504,0.2513,0.2661,0.281,0.2775,0.2789,0.2764,0.2708,0.2597,0.2622,0.2642,0.2533,0.2445,0.232,0,0,0,0,0,0.1636,0.164,0.1699,0.1757,0.1844,0.1901,0.2043,0.2132,0.2313,0.2278,0.2392,0.2443,0.2474,0.2557,0.2482,0.2689,0.2723,0.2589,0.2608,0.2729,0.2749,0.2641,0,0,0,0,0,0,0.1585,0.1636,0.1649,0.1627,0.164,0.1713,0.1796,0.1921,0.192,0.2114,0.2146,0.2285,0.2357,0.2484,0.243,0.2454,0.2412,0.2689,0.2682,0.2718,0.2736,0.2752,0.2648,0,0,0,0,0]},{"header":{"parameterUnit":"m.s-1","parameterCategory":2,"la1":30.2991,"la2":30.254,"lo1":-89.0895,"lo2":-89.0444,"dy":0.0017,"dx":0.0017,"nx":28,"ny":28,"refTime":"2024-04-03T09:00:00:Z","depth":"4","parameterNumber":3,"parameterNumberName":"V-component_of_CURRENTS"},"data":[0,0,0,0,0,0,0,0,0,0,0,0,0,0,0,0,0,0,0,0,0,0,0,0,0,0,0,0,0,0,0,0,0,0,0,0,0,0,0,0,0,0,0,0,0,0,0,0,0,0,0,0,0,0,0,0,0,0,0.0233,0.0233,0,0.02,0.0199,0.0199,0.0176,0.0176,0.0176,0.0176,0.0124,0.0123,0.0122,0,0,0,0,0,0,0,0,0,0,0,0,0,0.0231,0.0231,0.0233,0.0233,0.0233,0.02,0.0199,0.0199,0.0176,0.0176,0.0176,0.0176,0.0125,0.0123,0.0121,0,0,0,0,0,0,0,0,0,0,0,0,0,0.0217,0.0231,0.0233,0.0219,0.0217,0.02,0.0199,0.0199,0.0176,0.0176,0.0176,0.0176,0.0125,0.0123,0.0121,0.0109,0,0,0.0115,0.0114,0,0,0,0,0,0,0,0,0.0218,0.0217,0.0221,0.022,0.0218,0.0194,0.0179,0.0168,0.0176,0.019,0.0176,0.0176,0.0147,0.0143,0.0135,0.0107,0.0104,0.0115,0.0114,0.0113,0.0112,0,0,0,0,0,0,0,0.0219,0.0218,0.0218,0.0221,0.0219,0.0198,0.0196,0.0177,0.0167,0.0189,0.0188,0.0186,0.0146,0.0137,0.0133,0.0104,0.0115,0.0113,0.0112,0.0111,0.0065,0.0065,0,0,0,0,0,0,0.0228,0.0219,0.0219,0.0217,0.0219,0.0198,0.0196,0.02,0.0168,0.0164,0.0187,0.0186,0.014,0.0136,0.0131,0.0131,0.0113,0.0111,0.011,0.0065,0.0065,0.0065,0,0,0,0,0,0,0.0229,0.0229,0.0221,0.0218,0.0216,0.0199,0.0203,0.02,0.0197,0.0167,0.0162,0.0189,0.014,0.0134,0.0122,0.0129,0.011,0.0108,0.0065,0.0065,0.0065,0.0121,0,0,0,0,0,0,0.0229,0.0229,0.0237,0.0219,0.0217,0.0219,0.0203,0.0199,0.0197,0.0195,0.0167,0.0161,0.014,0.0126,0.012,0.0125,0.0106,0.0065,0.0065,0.0065,0.0119,0.0123,0.0126,0,0,0,0,0,0.0229,0.0242,0.0237,0.0237,0.0227,0.022,0.0217,0.0203,0.0197,0.02,0.018,0.0163,0.0121,0.0124,0.0118,0.0123,0.0065,0.0065,0.0065,0.0117,0.0122,0.0126,0,0,0,0,0,0,0.0246,0.0241,0.0235,0.0246,0.0237,0.0217,0.022,0.0209,0.0196,0.0196,0.0166,0.0159,0.015,0.0127,0.0131,0.0107,0.0089,0.0087,0.0131,0.0135,0.0138,0.0159,0.0105,0,0,0,0,0,0.0253,0.0262,0.025,0.0259,0.0257,0.0239,0.0235,0.0227,0.0213,0.0207,0.0186,0.0163,0.0143,0.0133,0.0112,0.0102,0.0072,0.0099,0.0102,0.0106,0.0117,0.0072,0.0073,0.0065,0.0065,0.0065,0,0,0.0262,0.0261,0.0266,0.0263,0.0255,0.0261,0.0237,0.0238,0.0246,0.0203,0.0206,0.0176,0.0143,0.0132,0.0125,0.0116,0.0091,0.0106,0.0109,0.0119,0.0072,0.0073,0.0074,0.0065,0.0065,0.0065,0,0,0.0287,0.0284,0.0301,0.0299,0.0295,0.0282,0.0286,0.027,0.0267,0.0262,0.0233,0.0208,0.0181,0.0157,0.0141,0.015,0.0112,0.0141,0.0177,0.0133,0.0133,0.0133,0.0094,0.009,0.0143,0.0143,0.0143,0,0.0298,0.0321,0.0304,0.032,0.0326,0.0296,0.0315,0.0306,0.0289,0.029,0.0272,0.0224,0.0192,0.0178,0.018,0.0159,0.0131,0.0166,0.0138,0.0138,0.0137,0.0097,0.0092,0.0145,0.0145,0.0145,0.0145,0,0.0337,0.0355,0.0366,0.0377,0.0376,0.0389,0.0376,0.038,0.0365,0.0346,0.033,0.0281,0.0254,0.0233,0.0211,0.0192,0.0172,0.0149,0.0132,0.0141,0.0098,0.0092,0.0149,0.0148,0.0148,0.0147,0,0,0.036,0.0389,0.0394,0.0417,0.0412,0.042,0.0435,0.0436,0.0453,0.0413,0.0422,0.0368,0.0333,0.0313,0.0272,0.0231,0.0193,0.0195,0.0192,0.0164,0.01,0.009,0.0082,0.0166,0.0165,0.0164,0.0072,0,0.0398,0.045,0.0447,0.0492,0.0517,0.0504,0.0523,0.0519,0.05,0.0499,0.0439,0.0424,0.0365,0.0356,0.0304,0.0226,0.018,0.0221,0.0088,0.0085,0.0081,0.0076,0.0162,0.0067,0.0066,0.0064,0.0064,0,0.0438,0.0471,0.0525,0.0569,0.0578,0.0597,0.0625,0.0642,0.0624,0.061,0.0571,0.0517,0.046,0.0408,0.0272,0.0302,0.0211,0.014,0.0134,0.0104,0.0064,0.0053,0.0052,0.0053,0.0054,0.0055,0.0055,0,0.0472,0.0526,0.0576,0.059,0.0627,0.0656,0.0678,0.0676,0.0708,0.0683,0.0688,0.0595,0.0565,0.0436,0.0285,0.0279,0.0131,0.01,0.0001,-0.0001,0.0012,0.0013,0.0001,0.0001,0.0001,0.0002,0.0002,0,0.0511,0.0554,0.0604,0.0631,0.0708,0.0711,0.078,0.0788,0.0805,0.084,0.0752,0.0748,0.0571,0.0461,0.0312,0.0142,0.0145,0.0011,-0.0024,0.0037,0.0041,0.0007,0.0009,-0.0002,-0.0001,-0.0,0.0,0,0.0538,0.0567,0.0637,0.0697,0.0728,0.0785,0.0869,0.0912,0.0918,0.0963,0.0962,0.0866,0.072,0.0529,0.0319,0.019,0.002,-0.0043,0.0045,0.0016,-0.0089,-0.0084,-0.016,-0.0161,-0.0162,-0.0162,-0.0163,0,0.0554,0.0594,0.0693,0.0747,0.078,0.0869,0.0933,0.0973,0.1021,0.1033,0.1055,0.0936,0.0844,0.0548,0.0335,0.0045,-0.0002,-0.0092,-0.0101,-0.0078,-0.0106,-0.0098,-0.0091,-0.0165,-0.0165,-0.0165,-0.0165,0,0.0587,0.0626,0.0683,0.0802,0.0882,0.0983,0.1073,0.1119,0.1163,0.1166,0.1132,0.0975,0.0808,0.056,0.0333,0.0123,-0.0034,-0.0103,-0.0102,-0.0112,-0.0086,-0.011,-0.0102,-0.0169,-0.0168,-0.0168,-0.0168,0,0.0614,0.0663,0.0746,0.085,0.0961,0.1064,0.1111,0.1167,0.1217,0.1218,0.1205,0.1019,0.0911,0.0601,0.0394,0.0184,0.0121,0.0048,0.0039,0.004,0.0117,0.0181,0.0154,0,0,0,0,0,0.0635,0.0692,0.0788,0.0902,0.1014,0.1086,0.1192,0.1226,0.1267,0.1253,0.1233,0.1075,0.0769,0.0641,0.0429,0.0357,0.0074,0.0099,-0.0017,-0.0187,-0.0183,-0.0128,0,0,0,0,0,0,0.0647,0.0736,0.0785,0.0931,0.1017,0.1147,0.1221,0.1247,0.1243,0.1244,0.1089,0.1014,0.0718,0.089,0.0422,0.0359,0.0254,-0.0041,-0.0046,-0.0189,-0.0185,-0.0182,-0.0125,0,0,0,0,0]}]]